*** The Vicarage Weather Feed ***

NOAA NWS Hourly Roundups by Site

Regional Weather Roundup for Omaha, NE

To Select Another Site Choose from List

Select Site:  

000
ASUS43 KOAX 191610
RWRNE

WEATHER ROUNDUP FOR NEBRASKA
NATIONAL WEATHER SERVICE OMAHA NE
1100 AM CDT TUE JUN 19 2018

NOTES: SATELLITE DATA IS BEING USED TO AUGMENT CLOUD COVER ABOVE
       12000 FEET.
       "FAIR" INDICATES FEW OR NO CLOUDS BELOW 12,000 FEET WITH NO
       SIGNIFICANT WEATHER AND/OR OBSTRUCTIONS TO VISIBILITY.


NEZ001>004-019>022-054>056-191700-
NEBRASKA PANHANDLE

CITY           SKY/WX    TMP DP  RH WIND       PRES   REMARKS
SCOTTSBLUFF    CLOUDY    63  58  83 NE8       30.10S
ALLIANCE       CLOUDY    61  58  90 N8        30.08F
CHADRON        CLOUDY    58  57  97 NE3       30.10S
GORDON         CLOUDY    62  58  88 N8        30.08S
KIMBALL        CLOUDY    60  58  92 N3        30.13S
SIDNEY         CLOUDY    66  59  78 W7        30.11S
$$

NEZ057>060-069>072-079>082-191700-
SOUTHWEST NEBRASKA

CITY           SKY/WX    TMP DP  RH WIND       PRES   REMARKS
NORTH PLATTE   MOSUNNY   73  65  75 SE10      30.00R
IMPERIAL       SUNNY     72  60  66 VRB5      30.04R
LEXINGTON        N/A    N/A N/A N/A MISG        N/A
MCCOOK         SUNNY     78  62  57 E15G24    29.98F
OGALLALA       MOSUNNY   73  58  59 N7        30.05S
$$

NEZ005>010-023>029-035>040-094-191700-
NORTH CENTRAL NEBRASKA

CITY           SKY/WX    TMP DP  RH WIND       PRES   REMARKS
VALENTINE      CLOUDY    64  61  90 N8        30.05R
AINSWORTH      CLOUDY   N/A N/A N/A N15       30.03R
BROKEN BOW     CLOUDY    70  66  87 E12       29.99R
O`NEILL        CLOUDY    68  67  98 NE10      30.00R
ORD            CLOUDY    68  66  93 E12       29.97F
THEDFORD       CLOUDY    64  61  90 N14       30.05R
$$

NEZ041-046>049-061>064-073>077-083>087-191700-
SOUTH CENTRAL NEBRASKA

CITY           SKY/WX    TMP DP  RH WIND       PRES   REMARKS
GRAND ISLAND   CLOUDY    72  67  84 NE12      29.98F
AURORA         LGT RAIN  74  71  90 NE10      29.98F
HASTINGS       CLOUDY    74  68  81 N13       29.99F
HEBRON         SUNNY     81  70  69 N3        29.93S
HOLDREGE       MOSUNNY   75  66  74 NE12G18   29.99F
KEARNEY        PTSUNNY   75  65  70 NE14      29.99F
YORK           CLOUDY    77  70  78 N9        29.96F
$$

NEZ011>018-030>034-042>045-191700-
NORTHEAST NEBRASKA

CITY           SKY/WX    TMP DP  RH WIND       PRES   REMARKS
NORFOLK        CLOUDY    74  68  81 NE6       29.95R
ALBION         CLOUDY    73  69  86 N7        29.98F
BLAIR          CLOUDY    74  71  93 CALM      29.94F
COLUMBUS       CLOUDY    76  70  82 NE12      29.96F
FREMONT        CLOUDY    76  73  90 SE3       29.95F
TEKAMAH        CLOUDY    74  71  91 SE3       29.93S
WAYNE          CLOUDY    73  72  96 NE8       29.95F
$$

NEZ050>053-065>068-078-088>093-191700-
SOUTHEAST NEBRASKA

CITY           SKY/WX    TMP DP  RH WIND       PRES   REMARKS
LINCOLN        CLOUDY    78  70  76 NE5       29.94F
OMAHA EPPLEY   CLOUDY    76  71  85 S6        29.92F
BEATRICE       CLOUDY    78  68  72 SE5       29.93S
FALLS CITY     PTSUNNY   78  73  84 SE6       29.93F
NEBRASKA CITY  CLOUDY    75  75 100 S8        29.94F
PLATTSMOUTH    CLOUDY    73  72  96 SE7       29.93F
$$

NEZ044-045-051>053-067-191700-
OMAHA AREA

CITY           SKY/WX    TMP DP  RH WIND       PRES   REMARKS
OMAHA EPPLEY   CLOUDY    76  71  85 S6        29.92F
BLAIR          CLOUDY    74  71  93 CALM      29.94F
FREMONT        CLOUDY    76  73  90 SE3       29.95F
MILLARD        CLOUDY    76  73  92 SE3       29.93F
OFFUTT AFB     CLOUDY    73  70  91 SE5       29.91F
PLATTSMOUTH    CLOUDY    73  72  96 SE7       29.93F
WAHOO          CLOUDY    74  71  92 CALM      29.95F
$$



 

View Past Reports for Omaha, NE.

Products Courtesy of NOAA-NWS
NWS Information Parsing Script by Ken True at Saratoga Weather - Script by SE Lincoln Weather.

This data is offered only as a general guide to local weather conditions. It should not be relied upon in lieu of officially disseminated weather information for determining possible risk to persons or property. This site, including all information contained therein, is made available as is without warranties of any kind, either express or implied. The Vicarage Weather Feed© includes links to other sites for user convenience only. The content of any linked third-party site is not controlled by The Vicarage Weather Feed©. Access to any third-party website through The Vicarage Weather Feed©, regardless of whether or not the third-party site is a linked site, is entirely at the users own risk. Externally sourced content or material is excluded from The Vicarage Weather Feed© copyright and is the copyright and property of the respective provider. Skywarn® and the Skywarn® logo are registered trademarks of the National Oceanic and Atmospheric Administration, used with permission.